Starlink 5799

operational
NORAD ID: 56002 Int'l Des: 2023-042 Owner: SPXS Country: US Constellation: starlink
LEOCIRCULAR

关于 Starlink 5799

正在加载描述...

实时位置

正在加载3D地球...

即将过境

高度历史

Altitude vs Time

uPlot chart will show altitude changes over time

两行轨道根数

1 56002U 23042S 25351.12686425 .00000772 00000-0 72237-4 0 9995
2 56002 43.0028 144.4872 0001254 270.0586 90.0113 15.02536891150495
Epoch: Dec 17, 2025 • Age: 17 hours

当前状态

高度 570.9 km
速度 7.58 km/s
星下点 -41.30°S, 1.52°E
发射日期 Mar 24, 2023
运行时间 2.7 years
类型 internet

技术详情

分类 Payload
质量 305.00 kg
干质量 290.00 kg
总质量 305.00 kg
长度 0.20 m
直径 2.80 m
跨度 9.00 m
形状 Box + pan
制造商 SPXS
平台类型 Starlink
阶段状态 In Orbit
所有者/国家 SPXS/US

大型星座

Loading constellations...